SWA2042 KBNA-KTYS

Flight info

Callsign SWA2042
Flight time 0h 35m
Altitude 17000
Route TAZMO4 BURME
Aircraft B738/M-SDE2E3FGHIRWXY/LB1

Departure

Time 2026-04-22 22:52
Airport Nashville International Airport (KBNA)

Arrival

Time 2026-04-22 23:27
Airport McGhee Tyson Airport (KTYS)
Time Latitude Longitude Altitude Speed Heading
2026-04-22 22:28 36.12928 -86.67128 575 ft 0 kts 131°
2026-04-22 22:40 36.12934 -86.67135 575 ft 2 kts 131°
2026-04-22 22:40 36.12945 -86.67151 578 ft 2 kts 131°
2026-04-22 22:40 36.12956 -86.67166 578 ft 2 kts 134°
2026-04-22 22:40 36.12969 -86.67178 575 ft 2 kts 174°
2026-04-22 22:44 36.12964 -86.67184 575 ft 2 kts 217°
2026-04-22 22:45 36.12940 -86.67207 576 ft 7 kts 217°
2026-04-22 22:45 36.12889 -86.67246 576 ft 11 kts 207°
2026-04-22 22:45 36.12818 -86.67313 582 ft 15 kts 223°
2026-04-22 22:45 36.12740 -86.67403 580 ft 15 kts 222°
2026-04-22 22:46 36.12654 -86.67471 583 ft 14 kts 208°
2026-04-22 22:46 36.12574 -86.67542 584 ft 14 kts 220°
2026-04-22 22:46 36.12502 -86.67616 586 ft 13 kts 219°
2026-04-22 22:46 36.12427 -86.67677 586 ft 13 kts 201°
2026-04-22 22:47 36.12365 -86.67711 584 ft 9 kts 220°
2026-04-22 22:47 36.12364 -86.67784 583 ft 9 kts 286°
2026-04-22 22:47 36.12384 -86.67862 582 ft 10 kts 288°
2026-04-22 22:47 36.12397 -86.67916 581 ft 0 kts 277°
2026-04-22 22:48 36.12397 -86.67920 581 ft 3 kts 277°
2026-04-22 22:48 36.12375 -86.67981 581 ft 2 kts 202°
2026-04-22 22:48 36.12373 -86.67981 581 ft 0 kts 191°
2026-04-22 22:51 36.12110 -86.68081 580 ft 84 kts 198°
2026-04-22 22:51 36.11289 -86.68416 581 ft 162 kts 198°
2026-04-22 22:52 36.10055 -86.68876 984 ft 198 kts 199°
2026-04-22 22:52 36.08672 -86.69386 1663 ft 210 kts 194°
2026-04-22 22:52 36.07249 -86.69264 2789 ft 209 kts 168°
2026-04-22 22:52 36.05832 -86.68559 3201 ft 231 kts 158°
2026-04-22 22:53 36.04336 -86.67663 3736 ft 242 kts 159°
2026-04-22 22:53 36.02813 -86.66752 4467 ft 245 kts 158°
2026-04-22 22:53 36.01271 -86.65840 5199 ft 246 kts 159°
2026-04-22 22:53 35.99722 -86.64926 5955 ft 248 kts 156°
2026-04-22 22:54 35.98401 -86.63525 6639 ft 258 kts 128°
2026-04-22 22:54 35.97788 -86.61412 7029 ft 268 kts 98°
2026-04-22 22:54 35.97708 -86.59104 7133 ft 272 kts 93°
2026-04-22 22:54 35.97685 -86.56751 7141 ft 274 kts 92°
2026-04-22 22:55 35.97654 -86.54408 7129 ft 271 kts 93°
2026-04-22 22:55 35.97626 -86.52874 7128 ft 270 kts 94°
2026-04-22 22:55 35.97524 -86.48248 7135 ft 269 kts 94°
2026-04-22 22:56 35.97658 -86.45943 7176 ft 272 kts 78°
2026-04-22 22:56 35.98168 -86.43668 7662 ft 278 kts 73°
2026-04-22 22:56 35.98761 -86.41383 8329 ft 281 kts 72°
2026-04-22 22:56 35.99367 -86.39072 8940 ft 285 kts 72°
2026-04-22 22:57 35.99974 -86.36721 9554 ft 288 kts 72°
2026-04-22 22:57 36.00577 -86.34345 10149 ft 291 kts 72°
2026-04-22 22:57 36.01176 -86.31948 10747 ft 293 kts 72°
2026-04-22 22:57 36.01776 -86.29522 11303 ft 296 kts 72°
2026-04-22 22:58 36.02377 -86.27079 11902 ft 298 kts 72°
2026-04-22 22:58 36.02979 -86.24623 12481 ft 300 kts 72°
2026-04-22 22:58 36.03584 -86.22148 12977 ft 302 kts 72°
2026-04-22 22:58 36.04189 -86.19664 12983 ft 302 kts 72°
2026-04-22 22:59 36.04795 -86.17173 12997 ft 303 kts 72°
2026-04-22 22:59 36.05403 -86.14675 13006 ft 303 kts 72°
2026-04-22 22:59 36.06007 -86.12187 13110 ft 303 kts 72°
2026-04-22 22:59 36.06615 -86.09681 13584 ft 306 kts 72°
2026-04-22 23:00 36.07017 -86.07090 14118 ft 309 kts 84°
2026-04-22 23:00 36.06988 -86.04436 14650 ft 309 kts 94°
2026-04-22 23:00 36.06801 -86.01781 14986 ft 313 kts 95°
2026-04-22 23:00 36.06592 -85.99121 15150 ft 310 kts 95°
2026-04-22 23:01 36.06385 -85.96457 15580 ft 314 kts 95°
2026-04-22 23:01 36.06183 -85.93752 16026 ft 317 kts 95°
2026-04-22 23:01 36.05986 -85.91059 16504 ft 320 kts 95°
2026-04-22 23:01 36.05788 -85.88301 16917 ft 323 kts 95°
2026-04-22 23:02 36.05593 -85.85542 17001 ft 321 kts 95°
2026-04-22 23:02 36.05398 -85.82794 17008 ft 322 kts 95°
2026-04-22 23:02 36.05201 -85.80024 17022 ft 323 kts 95°
2026-04-22 23:02 36.05006 -85.77260 17015 ft 322 kts 95°
2026-04-22 23:03 36.04813 -85.74506 17019 ft 322 kts 95°
2026-04-22 23:03 36.04621 -85.71747 17013 ft 322 kts 95°
2026-04-22 23:03 36.04429 -85.68995 17012 ft 321 kts 95°
2026-04-22 23:03 36.04236 -85.66246 17013 ft 322 kts 95°
2026-04-22 23:04 36.04042 -85.63491 17006 ft 322 kts 95°
2026-04-22 23:04 36.03848 -85.60741 17010 ft 322 kts 95°
2026-04-22 23:04 36.03652 -85.57984 17011 ft 321 kts 95°
2026-04-22 23:04 36.03457 -85.55238 17015 ft 321 kts 95°
2026-04-22 23:05 36.03261 -85.52489 17009 ft 322 kts 95°
2026-04-22 23:05 36.03064 -85.49735 17006 ft 322 kts 95°
2026-04-22 23:05 36.02866 -85.46981 17013 ft 322 kts 95°
2026-04-22 23:05 36.02668 -85.44227 17012 ft 322 kts 95°
2026-04-22 23:06 36.02468 -85.41469 17011 ft 322 kts 95°
2026-04-22 23:06 36.02271 -85.38750 17008 ft 322 kts 95°
2026-04-22 23:06 36.02071 -85.36001 17009 ft 321 kts 95°
2026-04-22 23:06 36.01871 -85.33256 17013 ft 321 kts 95°
2026-04-22 23:07 36.01670 -85.30508 17019 ft 321 kts 95°
2026-04-22 23:07 36.01468 -85.27765 17046 ft 321 kts 95°
2026-04-22 23:07 36.01266 -85.25022 17038 ft 321 kts 95°
2026-04-22 23:07 36.01063 -85.22277 17042 ft 321 kts 95°
2026-04-22 23:08 36.00860 -85.19534 17042 ft 320 kts 95°
2026-04-22 23:08 36.00657 -85.16796 17046 ft 320 kts 95°
2026-04-22 23:08 36.00453 -85.14056 17047 ft 320 kts 95°
2026-04-22 23:08 36.00248 -85.11311 17044 ft 320 kts 95°
2026-04-22 23:09 36.00042 -85.08570 17044 ft 320 kts 95°
2026-04-22 23:09 35.99835 -85.05829 17046 ft 320 kts 95°
2026-04-22 23:09 35.99697 -85.03089 17050 ft 320 kts 91°
2026-04-22 23:09 35.99659 -85.00343 17049 ft 320 kts 89°
2026-04-22 23:10 35.99651 -84.97625 17045 ft 320 kts 89°
2026-04-22 23:10 35.99647 -84.94854 16817 ft 317 kts 89°
2026-04-22 23:10 35.99639 -84.92211 16584 ft 306 kts 89°
2026-04-22 23:10 35.99628 -84.89626 16264 ft 296 kts 89°
2026-04-22 23:11 35.99612 -84.87126 15905 ft 285 kts 89°
2026-04-22 23:11 35.99595 -84.84729 15587 ft 274 kts 89°
2026-04-22 23:11 35.99577 -84.82417 15285 ft 265 kts 89°
2026-04-22 23:11 35.99559 -84.80181 14980 ft 256 kts 89°
2026-04-22 23:12 35.99540 -84.77988 14681 ft 254 kts 89°
2026-04-22 23:12 35.99522 -84.75764 14394 ft 271 kts 89°
2026-04-22 23:12 35.99501 -84.73283 14135 ft 307 kts 89°
2026-04-22 23:12 35.99478 -84.70491 13713 ft 343 kts 89°
2026-04-22 23:13 35.99449 -84.67419 13263 ft 366 kts 90°
2026-04-22 23:13 35.99417 -84.64301 12795 ft 358 kts 90°
2026-04-22 23:13 35.99383 -84.61272 12361 ft 348 kts 90°
2026-04-22 23:13 35.99350 -84.58326 11949 ft 338 kts 90°
2026-04-22 23:14 35.99317 -84.55458 11558 ft 332 kts 90°
2026-04-22 23:14 35.99285 -84.52623 11182 ft 329 kts 90°
2026-04-22 23:14 35.99253 -84.49827 10806 ft 334 kts 91°
2026-04-22 23:14 35.99219 -84.46915 10645 ft 345 kts 91°
2026-04-22 23:15 35.99183 -84.43978 10454 ft 335 kts 91°
2026-04-22 23:15 35.99149 -84.41177 10294 ft 318 kts 91°
2026-04-22 23:15 35.99116 -84.38515 10148 ft 302 kts 91°
2026-04-22 23:15 35.99084 -84.35981 10015 ft 288 kts 91°
2026-04-22 23:16 35.99053 -84.33551 9762 ft 280 kts 91°
2026-04-22 23:16 35.99022 -84.31170 9511 ft 276 kts 91°
2026-04-22 23:16 35.98991 -84.28800 9245 ft 277 kts 91°
2026-04-22 23:16 35.98958 -84.26398 8990 ft 285 kts 91°
2026-04-22 23:17 35.98924 -84.23910 8706 ft 293 kts 91°
2026-04-22 23:17 35.98889 -84.21399 8394 ft 290 kts 91°
2026-04-22 23:17 35.98855 -84.18945 8094 ft 283 kts 91°
2026-04-22 23:17 35.98821 -84.16578 7964 ft 266 kts 91°
2026-04-22 23:18 35.98790 -84.14371 7828 ft 249 kts 91°
2026-04-22 23:18 35.98760 -84.12329 7667 ft 235 kts 91°
2026-04-22 23:18 35.98731 -84.10288 7188 ft 237 kts 91°
2026-04-22 23:18 35.98700 -84.08273 6869 ft 232 kts 91°
2026-04-22 23:19 35.98670 -84.06320 6615 ft 224 kts 91°
2026-04-22 23:19 35.98641 -84.04402 6402 ft 222 kts 92°
2026-04-22 23:19 35.98611 -84.02499 6185 ft 222 kts 91°
2026-04-22 23:19 35.98582 -84.00589 5957 ft 223 kts 92°
2026-04-22 23:20 35.98552 -83.98681 5748 ft 223 kts 92°
2026-04-22 23:20 35.98522 -83.96770 5530 ft 222 kts 92°
2026-04-22 23:20 35.98492 -83.94872 5322 ft 218 kts 92°
2026-04-22 23:20 35.98462 -83.93030 5106 ft 213 kts 92°
2026-04-22 23:21 35.98433 -83.91222 4949 ft 204 kts 93°
2026-04-22 23:21 35.98405 -83.89520 4838 ft 195 kts 93°
2026-04-22 23:21 35.98377 -83.87861 4762 ft 194 kts 93°
2026-04-22 23:21 35.98346 -83.86184 4699 ft 197 kts 95°
2026-04-22 23:22 35.97951 -83.84637 4579 ft 189 kts 128°
2026-04-22 23:22 35.97039 -83.83510 4507 ft 184 kts 153°
2026-04-22 23:22 35.95859 -83.83018 4428 ft 181 kts 179°
2026-04-22 23:22 35.94660 -83.83381 4234 ft 178 kts 215°
2026-04-22 23:23 35.93674 -83.84223 4038 ft 169 kts 218°
2026-04-22 23:23 35.92758 -83.85084 3837 ft 162 kts 218°
2026-04-22 23:23 35.91887 -83.85954 3668 ft 162 kts 223°
2026-04-22 23:23 35.91051 -83.86903 3489 ft 162 kts 224°
2026-04-22 23:24 35.90245 -83.87871 3285 ft 163 kts 225°
2026-04-22 23:24 35.89440 -83.88855 3094 ft 162 kts 225°
2026-04-22 23:24 35.88645 -83.89829 2873 ft 159 kts 225°
2026-04-22 23:24 35.87852 -83.90785 2616 ft 159 kts 226°
2026-04-22 23:25 35.87101 -83.91716 2397 ft 148 kts 226°
2026-04-22 23:25 35.86380 -83.92604 2203 ft 146 kts 226°
2026-04-22 23:25 35.85656 -83.93485 2042 ft 149 kts 225°
2026-04-22 23:25 35.84910 -83.94397 1833 ft 151 kts 225°
2026-04-22 23:26 35.84157 -83.95320 1664 ft 155 kts 225°
2026-04-22 23:26 35.83390 -83.96258 1460 ft 155 kts 225°
2026-04-22 23:26 35.82634 -83.97183 1244 ft 151 kts 225°
2026-04-22 23:26 35.81911 -83.98069 1066 ft 145 kts 225°
2026-04-22 23:27 35.81206 -83.98931 964 ft 136 kts 224°
2026-04-22 23:27 35.80643 -83.99625 954 ft 73 kts 225°
2026-04-22 23:27 35.80384 -83.99942 952 ft 48 kts 225°
2026-04-22 23:27 35.80168 -84.00205 950 ft 37 kts 224°
2026-04-22 23:28 35.80038 -84.00294 948 ft 18 kts 161°
2026-04-22 23:28 35.80042 -84.00174 949 ft 17 kts 44°
2026-04-22 23:28 35.80125 -84.00073 951 ft 16 kts 46°
2026-04-22 23:28 35.80204 -83.99975 952 ft 16 kts 45°
2026-04-22 23:29 35.80280 -83.99881 952 ft 15 kts 45°
2026-04-22 23:29 35.80354 -83.99790 954 ft 15 kts 43°
2026-04-22 23:29 35.80425 -83.99705 954 ft 14 kts 45°
2026-04-22 23:29 35.80501 -83.99635 955 ft 13 kts 36°
2026-04-22 23:30 35.80565 -83.99557 955 ft 13 kts 45°
2026-04-22 23:30 35.80574 -83.99546 956 ft 13 kts 45°